F6141 Weather Reports


time (UTC)temp
F
wind
direction
speed
knots
gust
knots
rain 1hr
in
rain 24hr
in
rain mn
in
humidity
%
barometer
mb
20240304060541 37 203 0.9 1.7 0.00 0.00 0.00 71 1010.9
20240304055517 38 218 2.6 4.3 0.00 0.00 0.00 70 1010.9
20240304054546 38 257 2.6 5.2 0.00 0.00 0.00 70 1010.4
20240304053528 38 252 1.7 4.3 0.00 0.00 0.00 70 1010.1
20240304052531 38 238 2.6 4.3 0.00 0.00 0.00 72 1009.9
20240304051536 38 251 2.6 3.5 0.00 0.00 0.00 73 1010.0
20240304050518 38 261 2.6 3.5 0.00 0.00 0.00 76 1009.9
20240304045520 38 250 2.6 5.2 0.00 0.00 0.00 78 1009.5
20240304044522 38 157 1.7 3.5 0.00 0.00 0.00 79 1009.1
20240304043545 39 240 0.9 2.6 0.00 0.00 0.00 78 1009.0
20240304042547 39 230 1.7 2.6 0.00 0.00 0.00 78 1009.1
20240304041550 39 255 1.7 2.6 0.00 0.00 0.00 78 1007.7
20240304040532 40 237 1.7 3.5 0.00 0.00 0.00 78 1008.0
20240304035536 40 248 2.6 3.5 0.00 0.00 0.00 80 1007.8
20240304034519 40 251 1.7 3.5 0.00 0.00 0.00 80 1007.6
20240304033521 40 249 1.7 2.6 0.00 0.00 0.00 79 1007.6
20240304032524 40 200 2.6 4.3 0.00 0.00 0.00 78 1007.7
20240304031540 41 236 1.7 3.5 0.00 0.00 0.00 78 1007.5
20240304030536 41 264 2.6 4.3 0.00 0.00 0.00 78 1007.2
20240304025551 41 236 1.7 3.5 0.00 0.00 0.00 77 1007.1
20240304024515 41 130 3.5 4.3 0.00 0.00 0.00 76 1006.9
20240304023518 42 173 2.6 3.5 0.00 0.00 0.00 74 1006.8
20240304022520 42 264 3.5 5.2 0.00 0.00 0.00 74 1006.5
20240304021523 43 245 2.6 4.3 0.00 0.00 0.00 73 1005.9
20240304020525 43 265 4.3 7.0 0.00 0.00 0.00 72 1005.6
20240304015527 44 255 4.3 8.7 0.00 0.00 0.00 71 1005.1
20240304014530 45 296 5.2 11.3 0.00 0.00 0.00 71 1004.9
20240304013532 45 263 4.3 6.1 0.00 0.00 0.00 71 1004.8
20240304012517 46 254 6.1 9.6 0.00 0.00 0.00 73 1004.6
20240304011519 46 265 7.0 13.0 0.00 0.00 0.00 74 1003.7
20240304010522 47 226 7.0 10.4 0.00 0.00 0.00 74 1003.1
20240304005524 47 258 5.2 8.7 0.00 0.00 0.00 75 1002.8
20240304004527 47 274 6.1 8.7 0.00 0.00 0.00 75 1002.2
20240304003523 48 253 6.1 12.2 0.00 0.00 0.00 75 1001.9
20240304002520 48 250 6.1 9.6 0.00 0.00 0.00 75 1001.6
20240304001516 49 257 6.1 13.0 0.00 0.00 0.00 74 1000.7
20240304000518 50 289 6.1 9.6 0.00 0.00 0.00 73 1000.0
20240303235521 51 282 6.1 9.6 0.00 0.00 0.00 72 999.1
20240303234525 53 266 3.5 7.8 0.00 0.00 0.00 71 998.4
20240303233526 54 221 7.0 13.9 0.00 0.00 0.00 69 997.9
20240303232528 56 132 4.3 8.7 0.00 0.00 0.00 66 997.4
20240303231610 58 235 3.5 7.8 0.00 0.00 0.00 64 996.5
20240303230533 59 217 5.2 8.7 0.00 0.00 0.00 62 995.9
20240303225517 61 250 4.3 7.0 0.00 0.00 0.00 58 995.7
20240303224540 63 231 5.2 7.8 0.00 0.00 0.00 55 995.0
20240303223522 65 215 4.3 8.7 0.00 0.00 0.00 49 994.7
20240303222524 66 248 5.2 8.7 0.00 0.00 0.00 44 994.4
20240303221527 68 258 4.3 7.0 0.00 0.00 0.00 41 993.7
20240303220531 69 223 5.2 10.4 0.00 0.00 0.00 40 993.6
20240303215526 70 289 6.1 11.3 0.00 0.00 0.00 40 993.0
20240303214516 69 228 5.2 7.8 0.00 0.00 0.00 55 992.4
20240303213558 68 165 5.2 7.8 0.00 0.00 0.00 62 992.4
20240303212535 68 157 3.5 5.2 0.00 0.00 0.00 62 992.4
20240303211543 68 161 5.2 7.8 0.00 0.00 0.00 62 992.3
20240303210526 68 148 6.1 9.6 0.00 0.00 0.00 62 992.4
20240303205549 68 187 6.1 9.6 0.00 0.00 0.00 63 992.6
20240303204531 68 158 7.0 11.3 0.00 0.00 0.00 63 992.8
20240303203515 68 155 5.2 7.8 0.00 0.00 0.00 63 992.9
20240303202518 68 162 6.1 9.6 0.00 0.00 0.00 63 993.0
20240303201520 67 176 7.8 12.2 0.00 0.00 0.00 64 993.3
20240303200543 67 166 6.1 8.7 0.00 0.00 0.00 65 993.5
20240303195525 66 178 6.1 9.6 0.00 0.00 0.00 66 993.8
20240303194528 65 172 5.2 9.6 0.00 0.00 0.00 68 994.0
20240303193530 64 175 6.1 9.6 0.00 0.00 0.00 69 994.3
20240303192553 64 147 5.2 7.8 0.00 0.00 0.00 70 994.5
20240303191528 63 163 7.8 11.3 0.00 0.00 0.00 71 994.7
20240303190517 62 160 7.8 13.0 0.00 0.00 0.00 72 995.0
20240303185540 62 172 5.2 7.0 0.00 0.00 0.00 72 995.1
20240303184516 62 154 6.1 7.8 0.00 0.00 0.00 72 995.3
20240303183544 61 159 6.1 9.6 0.00 0.00 0.00 72 995.4
20240303182547 61 155 5.2 7.8 0.00 0.00 0.00 72 995.5
20240303181529 61 141 7.0 9.6 0.00 0.00 0.00 72 995.7
20240303180531 61 147 7.0 11.3 0.00 0.00 0.00 71 996.0
20240303175516 61 157 7.8 10.4 0.00 0.00 0.00 73 996.2
20240303174518 60 166 6.1 8.7 0.00 0.00 0.00 73 996.2
20240303173541 61 158 7.8 14.8 0.00 0.00 0.00 72 996.4
20240303172523 59 184 7.0 9.6 0.00 0.00 0.00 75 996.7
20240303171525 59 183 7.8 13.0 0.00 0.00 0.00 74 997.1
20240303170548 60 158 7.0 11.3 0.00 0.00 0.00 73 997.3
20240303165530 59 172 7.8 15.6 0.00 0.00 0.00 74 997.7
20240303164533 59 156 6.1 9.6 0.00 0.00 0.00 74 997.9
20240303163537 58 156 8.7 13.9 0.00 0.00 0.00 75 998.1
20240303162520 57 149 6.1 10.4 0.00 0.00 0.00 76 998.2
20240303161522 57 156 8.7 11.3 0.00 0.00 0.00 76 998.2
20240303160519 57 147 5.2 8.7 0.00 0.00 0.00 76 998.3
20240303155517 56 171 6.1 9.6 0.00 0.00 0.00 77 998.5
20240303154530 55 164 6.1 8.7 0.00 0.00 0.00 78 998.6
20240303153532 54 157 6.1 11.3 0.00 0.00 0.00 80 998.8
20240303152517 54 184 7.0 11.3 0.00 0.00 0.00 80 998.9
20240303151519 53 163 7.0 10.4 0.00 0.00 0.00 80 999.0
20240303150521 52 163 5.2 9.6 0.00 0.00 0.00 82 999.2
20240303145529 52 138 7.0 9.6 0.00 0.00 0.00 82 999.4
20240303144526 51 154 5.2 9.6 0.00 0.00 0.00 84 999.7
20240303143529 49 157 6.1 9.6 0.00 0.00 0.00 85 999.8
20240303142531 48 176 3.5 7.8 0.00 0.00 0.00 86 999.8
20240303141516 47 149 3.5 7.8 0.00 0.00 0.00 88 1000.0
20240303140604 46 149 4.3 7.8 0.00 0.00 0.00 88 1000.3
20240303135521 46 148 3.5 8.7 0.00 0.00 0.00 89 1000.5
20240303134623 45 141 2.6 5.2 0.00 0.00 0.00 89 1000.6
20240303133525 45 93 2.6 5.2 0.00 0.00 0.00 89 1000.7
20240303132528 45 145 3.5 5.2 0.00 0.00 0.00 89 1000.8
20240303131538 44 149 3.5 6.1 0.00 0.00 0.00 89 1001.0
20240303130533 44 146 2.6 4.3 0.00 0.00 0.00 89 1001.2
20240303125517 45 147 2.6 4.3 0.00 0.00 0.00 89 1001.3
20240303124520 45 151 1.7 3.5 0.00 0.00 0.00 88 1001.3
20240303123522 46 185 2.6 4.3 0.00 0.00 0.00 87 1001.5
20240303122525 46 154 3.5 6.1 0.00 0.00 0.00 86 1001.6
20240303121528 46 162 3.5 5.2 0.00 0.00 0.00 86 1001.7
20240303120530 46 140 3.5 5.2 0.00 0.00 0.00 85 1001.9
20240303115532 46 142 4.3 7.0 0.00 0.00 0.00 85 1002.0
20240303114516 47 167 4.3 7.0 0.00 0.00 0.00 85 1002.2
20240303113519 47 173 4.3 7.0 0.00 0.00 0.00 84 1002.3
20240303112542 46 154 4.3 6.1 0.00 0.00 0.00 84 1002.5
20240303111544 46 156 4.3 7.8 0.00 0.00 0.00 84 1002.5
20240303110526 46 170 4.3 6.1 0.00 0.00 0.00 84 1002.6
20240303105548 46 165 3.5 6.1 0.00 0.00 0.00 83 1002.7
20240303104525 47 163 3.5 5.2 0.00 0.00 0.00 83 1002.9
20240303103515 46 172 4.3 6.1 0.00 0.00 0.00 83 1003.0
20240303102518 47 160 3.5 7.0 0.00 0.00 0.00 82 1003.0
20240303101520 47 138 4.3 7.8 0.00 0.00 0.00 82 1003.0
20240303100523 47 165 4.3 7.8 0.00 0.00 0.00 82 1003.1
20240303095526 47 164 4.3 7.8 0.00 0.00 0.00 81 1003.2
20240303094529 47 156 4.3 6.1 0.00 0.00 0.00 81 1003.5
20240303093550 47 147 4.3 8.7 0.00 0.00 0.00 81 1003.6
20240303092532 46 174 3.5 6.1 0.00 0.00 0.00 81 1003.6
20240303091517 46 148 3.5 5.2 0.00 0.00 0.00 80 1003.9
20240303090519 47 168 2.6 5.2 0.00 0.00 0.00 80 1004.1
20240303085522 47 145 2.6 3.5 0.00 0.00 0.00 79 1004.4
20240303084524 47 149 3.5 5.2 0.00 0.00 0.00 79 1004.5
20240303083526 47 158 3.5 4.3 0.00 0.00 0.00 78 1004.6
20240303082549 47 159 2.6 4.3 0.00 0.00 0.00 78 1004.6
20240303081531 48 152 3.5 4.3 0.00 0.00 0.00 77 1004.9
20240303080515 48 166 3.5 5.2 0.00 0.00 0.00 77 1005.1
20240303075518 48 143 3.5 4.3 0.00 0.00 0.00 77 1005.3
20240303074520 48 161 4.3 6.1 0.00 0.00 0.00 77 1005.4
20240303073517 48 165 2.6 4.3 0.00 0.00 0.00 77 1005.4
20240303072525 48 164 3.5 6.1 0.00 0.00 0.00 77 1005.5
20240303071548 48 155 1.7 3.5 0.00 0.00 0.00 76 1005.6
20240303070530 48 170 2.6 5.2 0.00 0.00 0.00 75 1005.6
20240303065533 49 156 3.5 7.0 0.00 0.00 0.00 75 1005.8
20240303064517 49 160 3.5 5.2 0.00 0.00 0.00 74 1005.9
20240303063520 49 155 2.6 3.5 0.00 0.00 0.00 74 1006.0
20240303062543 49 137 2.6 6.1 0.00 0.00 0.00 74 1006.1
20240303061525 49 163 2.6 5.2 0.00 0.00 0.00 73 1006.1